Weather History for Muncie, IN

Change the Weather History Date:

Tuesday, December 27, 2011

  Actual Average Record
Temperature  
Mean Temperature 35 °F 28 °F  
Max Temperature 37 °F 35 °F 66 °F (2008)
Min Temperature 32 °F 21 °F -7 °F (2004)
Degree Days  
Heating Degree Days 30 37  
Month to date heating degree days 769 914  
Since 1 July heating degree days 1823 2049  
Cooling Degree Days 0 0  
Month to date cooling degree days 0 0  
Year to date cooling degree days 1068 956  
Moisture  
Dew Point 30 °F    
Average Humidity 78    
Maximum Humidity 92    
Minimum Humidity 64    
Precipitation  
Precipitation 0.45 in 0.09 in 1.28 in (1968)
Month to date precipitation 4.25 2.54  
Year to date precipitation 48.27 39.78  
Sea Level Pressure  
Sea Level Pressure 29.64 in    
Wind  
Wind Speed 10 mph (West)    
Max Wind Speed 26 mph    
Max Gust Speed 32 mph    
Visibility 4 miles    
Events Rain , Snow    
T = Trace of Precipitation, MM = Missing Value Source: NWS Daily Summary

Daily Weather History Graph

Daily Weather History Graph

Search for Another Location

Airport:

Trip Planner

Search our weather history database for the weather conditions in past years. The results will help you decide how hot, cold, wet, or windy it might be!

Date:

Astronomy

Dec. 27, 2011 Rise Set
Actual Time 8:03 AM EST 5:22 PM EST
Civil Twilight 7:32 AM EST 5:52 PM EST
Nautical Twilight 6:58 AM EST 6:27 PM EST
Astronomical Twilight 6:25 AM EST 7:00 PM EST
Moon 9:57 AM EST (12/27) 8:55 PM EST (12/27)
Length of Visible Light 10h 20m
Length of Day
9h 19m
Waxing Crescent, 11% of the Moon is Illuminated
Dec 27
Waxing Crescent
Jan 1
First Quarter
Jan 9
Full
Jan 16
Last Quarter
Jan 23
New

Hourly Weather History & Observations

Time (EST) Temp. Windchill Dew Point Humidity Pressure Visibility Wind Dir Wind Speed Gust Speed Precip Events Conditions
12:53 AM 37.0 °F 31.0 °F 27.0 °F 67% 29.92 in 10.0 mi SSE 8.1 mph - N/A   Overcast
1:53 AM 36.0 °F 31.1 °F 28.0 °F 73% 29.88 in 10.0 mi SSE 5.8 mph - 0.00 in Rain Light Rain
3:53 AM 35.1 °F - 30.9 °F 85% 29.79 in 7.0 mi Calm Calm - 0.06 in Rain Light Rain
4:22 AM 35.6 °F - 30.2 °F 81% 29.78 in 6.0 mi Calm Calm - 0.03 in Rain Light Rain
4:53 AM 33.1 °F 28.7 °F 30.9 °F 92% 29.75 in 2.0 mi ESE 4.6 mph - 0.06 in Snow Light Snow
4:57 AM 33.8 °F 29.6 °F 30.2 °F 87% 29.74 in 1.8 mi ESE 4.6 mph - 0.01 in Snow Light Snow
5:04 AM 33.8 °F 29.6 °F 30.2 °F 87% 29.73 in 1.5 mi ESE 4.6 mph - 0.02 in Snow Light Snow
5:53 AM 32.0 °F 27.5 °F 30.0 °F 92% 29.73 in 2.0 mi South 4.6 mph - 0.07 in Snow Light Snow
5:57 AM 33.8 °F 28.6 °F 30.2 °F 87% 29.71 in 3.0 mi SSE 5.8 mph - 0.00 in Snow Light Snow
6:04 AM 33.8 °F 27.7 °F 30.2 °F 87% 29.69 in 3.0 mi SE 6.9 mph - 0.00 in Snow Light Snow
6:16 AM 33.8 °F 28.6 °F 30.2 °F 87% 29.70 in 2.0 mi South 5.8 mph - 0.01 in Snow Light Snow
6:43 AM 33.8 °F 29.6 °F 30.2 °F 87% 29.68 in 2.0 mi SSE 4.6 mph - 0.02 in Snow Light Snow
6:53 AM 33.1 °F 28.7 °F 30.9 °F 92% 29.68 in 1.5 mi SSE 4.6 mph - 0.03 in Snow Light Snow
7:09 AM 33.8 °F 29.6 °F 30.2 °F 87% 29.66 in 3.0 mi SSE 4.6 mph - 0.01 in Snow Light Snow
7:22 AM 33.8 °F 29.6 °F 30.2 °F 87% 29.65 in 4.0 mi SSE 4.6 mph - 0.01 in Snow Light Snow
7:53 AM 33.1 °F 27.7 °F 30.9 °F 92% 29.64 in 4.0 mi South 5.8 mph - 0.02 in Snow Light Snow
8:53 AM 33.1 °F 28.7 °F 30.9 °F 92% 29.61 in 3.0 mi South 4.6 mph - 0.01 in   Overcast
9:00 AM 33.8 °F 30.8 °F 32.0 °F 93% 29.59 in 2.5 mi South 3.5 mph - 0.00 in Rain Light Rain
9:35 AM 33.8 °F 30.8 °F 30.2 °F 87% 29.57 in 3.0 mi SSW 3.5 mph - 0.02 in Rain Light Rain
9:47 AM 33.8 °F 30.8 °F 30.2 °F 87% 29.57 in 4.0 mi South 3.5 mph - 0.02 in Rain Light Rain
9:53 AM 34.0 °F 31.0 °F 30.9 °F 89% 29.58 in 4.0 mi South 3.5 mph - 0.02 in Rain Light Rain
10:24 AM 33.8 °F 26.4 °F 30.2 °F 87% 29.57 in 1.8 mi NW 9.2 mph - 0.01 in Snow Light Snow
10:53 AM 32.0 °F 26.4 °F 30.9 °F 96% 29.55 in 1.5 mi NW 5.8 mph - 0.02 in Snow Light Snow
11:05 AM 32.0 °F 25.6 °F 30.2 °F 93% 29.54 in 2.5 mi NW 6.9 mph - 0.00 in Snow Light Snow
11:14 AM 32.0 °F 25.6 °F 30.2 °F 93% 29.53 in 3.0 mi NW 6.9 mph - 0.00 in Snow Light Snow
11:20 AM 32.0 °F 26.4 °F 30.2 °F 93% 29.53 in 1.8 mi NW 5.8 mph - 0.00 in Snow Light Snow
11:53 AM 32.0 °F 27.5 °F 30.9 °F 96% 29.53 in 1.2 mi WNW 4.6 mph - 0.01 in Snow Light Snow
12:28 PM 32.0 °F 25.6 °F 30.2 °F 93% 29.50 in 0.8 mi West 6.9 mph - 0.03 in Snow Light Snow
12:53 PM 32.0 °F 25.6 °F 30.9 °F 96% 29.51 in 0.5 mi West 6.9 mph - 0.06 in Snow Snow
1:01 PM 32.0 °F 24.8 °F 30.2 °F 93% 29.50 in 0.5 mi West 8.1 mph - 0.01 in Snow Snow
1:53 PM 32.0 °F 24.2 °F 30.9 °F 96% 29.51 in 0.8 mi West 9.2 mph - 0.05 in Snow Light Snow
2:08 PM 32.0 °F 24.2 °F 30.2 °F 93% 29.50 in 1.2 mi West 9.2 mph - 0.00 in Snow Light Snow
2:28 PM 32.0 °F 24.2 °F 30.2 °F 93% 29.50 in 0.8 mi West 9.2 mph - 0.01 in Snow Light Snow
2:53 PM 33.1 °F 23.9 °F 30.0 °F 89% 29.52 in 0.5 mi West 12.7 mph - 0.02 in Snow Snow
3:21 PM 33.8 °F 25.3 °F 30.2 °F 87% 29.52 in 1.2 mi WNW 11.5 mph - 0.01 in Snow Light Snow
3:37 PM 33.8 °F 23.9 °F 30.2 °F 87% 29.54 in 3.0 mi WNW 15.0 mph - 0.01 in Snow Light Snow
3:45 PM 33.8 °F 23.5 °F 30.2 °F 87% 29.54 in 2.0 mi West 16.1 mph - 0.01 in Snow Light Snow
3:53 PM 33.1 °F 23.4 °F 30.0 °F 89% 29.57 in 2.0 mi WNW 13.8 mph - 0.01 in Snow Light Snow
4:16 PM 33.8 °F 23.5 °F 30.2 °F 87% 29.57 in 1.5 mi West 16.1 mph - 0.00 in Snow Light Snow
4:42 PM 33.8 °F 23.9 °F 30.2 °F 87% 29.59 in 0.8 mi WNW 15.0 mph - 0.00 in   Overcast
4:50 PM 33.8 °F 23.2 °F 30.2 °F 87% 29.59 in 1.0 mi West 17.3 mph - 0.00 in   Overcast
4:53 PM 33.1 °F 23.9 °F 30.9 °F 92% 29.61 in 1.0 mi West 12.7 mph 21.9 mph 0.00 in   Overcast
5:17 PM 33.8 °F 23.5 °F 30.2 °F 87% 29.61 in 2.0 mi West 16.1 mph - N/A   Overcast
5:37 PM 33.8 °F 24.3 °F 30.2 °F 87% 29.63 in 3.0 mi West 13.8 mph - 0.00 in Rain Light Rain
5:45 PM 33.8 °F 25.3 °F 30.2 °F 87% 29.63 in 4.0 mi WNW 11.5 mph - 0.00 in Rain Light Rain
6:45 PM 33.8 °F 24.3 °F 30.2 °F 87% 29.67 in 6.0 mi West 13.8 mph - 0.01 in   Overcast
6:53 PM 35.1 °F 25.5 °F 30.9 °F 85% 29.69 in 7.0 mi WNW 15.0 mph - 0.01 in   Overcast
7:53 PM 35.1 °F 24.8 °F 30.9 °F 85% 29.73 in 10.0 mi WNW 17.3 mph 25.3 mph N/A   Overcast
8:53 PM 35.1 °F 23.8 °F 30.9 °F 85% 29.77 in 10.0 mi NW 20.7 mph 29.9 mph 0.00 in   Overcast
9:31 PM 33.8 °F 23.5 °F 30.2 °F 87% 29.77 in 10.0 mi NW 16.1 mph - N/A   Overcast
9:53 PM 34.0 °F 23.4 °F 30.0 °F 85% 29.80 in 10.0 mi WNW 17.3 mph 26.5 mph N/A   Overcast
10:53 PM 33.1 °F 21.9 °F 28.0 °F 82% 29.84 in 10.0 mi NW 18.4 mph 27.6 mph N/A   Overcast
11:53 PM 33.1 °F 21.9 °F 26.1 °F 75% 29.88 in 10.0 mi NW 18.4 mph 25.3 mph N/A   Overcast